Location: Unspecified
(41.1637°N, 24.2901°E)
Time: 15:14:39
(UTC+02:00)

ISS - Pass Details

Date: 24 June 2022
Orbit: 414 x 420 km, 51.6° (Epoch: 05 July)

Event Time Altitude Azimuth Distance (km) Brightness Sun altitude
Exits shadow 04:07:31 - 193° (SSW) 1,873 -0.9 -7.4°
Reaches altitude 10° 04:08:40 10° 183° (S) 1,488 -1.4 -7.2°
Maximum altitude 04:11:13 21° 133° (SE) 1,012 -1.7 -6.9°
Drops below altitude 10° 04:13:48 10° 83° (E) 1,499 0.1 -6.5°
Sets 04:16:15 0° 66° (ENE) 2,368 2.0 -6.1°
